Year,Month,Day,Hour,Minute,Value (Times are PST for windspeed in km/hr)
2018,04,27,00,00,3.10
2018,04,27,00,01,2.60
2018,04,27,00,02,3.00
2018,04,27,00,03,2.50
2018,04,27,00,04,2.90
2018,04,27,00,05,2.50
2018,04,27,00,06,2.50
2018,04,27,00,07,2.50
2018,04,27,00,08,2.90
2018,04,27,00,09,2.50
2018,04,27,00,10,2.60
2018,04,27,00,11,3.00
2018,04,27,00,12,2.50
2018,04,27,00,13,3.30
2018,04,27,00,14,2.80
2018,04,27,00,15,3.10
2018,04,27,00,16,2.30
2018,04,27,00,17,2.50
2018,04,27,00,18,3.40
2018,04,27,00,19,3.50
2018,04,27,00,20,0.80
2018,04,27,00,21,0.00
2018,04,27,00,22,0.00
2018,04,27,00,23,0.00
2018,04,27,00,24,0.00
2018,04,27,00,25,0.00
2018,04,27,00,26,0.00
2018,04,27,00,27,0.00
2018,04,27,00,28,0.00
2018,04,27,00,29,0.00
2018,04,27,00,30,0.00
2018,04,27,00,31,0.00
2018,04,27,00,32,0.00
2018,04,27,00,33,0.00
2018,04,27,00,34,0.00
2018,04,27,00,35,0.00
2018,04,27,00,36,0.00
2018,04,27,00,37,0.00
2018,04,27,00,38,0.00
2018,04,27,00,39,0.00
2018,04,27,00,40,0.00
2018,04,27,00,41,0.00
2018,04,27,00,42,0.00
2018,04,27,00,43,0.00
2018,04,27,00,44,0.00
2018,04,27,00,45,0.00
2018,04,27,00,46,0.00
2018,04,27,00,47,0.00
2018,04,27,00,48,0.00
2018,04,27,00,49,0.00
2018,04,27,00,50,0.00
2018,04,27,00,51,0.00
2018,04,27,00,52,0.00
2018,04,27,00,53,0.00
2018,04,27,00,54,0.00
2018,04,27,00,55,0.00
2018,04,27,00,56,0.00
2018,04,27,00,57,0.00
2018,04,27,00,58,0.00
2018,04,27,00,59,0.00
2018,04,27,01,00,0.00
2018,04,27,01,01,0.00
2018,04,27,01,02,0.00
2018,04,27,01,03,0.00
2018,04,27,01,04,0.00
2018,04,27,01,05,0.00
2018,04,27,01,06,0.00
2018,04,27,01,07,0.00
2018,04,27,01,08,0.00
2018,04,27,01,09,0.00
2018,04,27,01,10,0.00
2018,04,27,01,11,0.00
2018,04,27,01,12,0.00
2018,04,27,01,13,0.00
2018,04,27,01,14,0.00
2018,04,27,01,15,0.00
2018,04,27,01,16,0.00
2018,04,27,01,17,0.00
2018,04,27,01,18,0.00
2018,04,27,01,19,0.00
2018,04,27,01,20,0.00
2018,04,27,01,21,0.00
2018,04,27,01,22,0.00
2018,04,27,01,23,0.00
2018,04,27,01,24,0.00
2018,04,27,01,25,0.00
2018,04,27,01,26,0.00
2018,04,27,01,27,0.00
2018,04,27,01,28,0.00
2018,04,27,01,29,0.00
2018,04,27,01,30,0.00
2018,04,27,01,31,0.00
2018,04,27,01,32,0.00
2018,04,27,01,33,0.00
2018,04,27,01,34,0.00
2018,04,27,01,35,0.00
2018,04,27,01,36,0.00
2018,04,27,01,37,0.00
2018,04,27,01,38,0.00
2018,04,27,01,39,0.00
2018,04,27,01,40,0.00
2018,04,27,01,41,0.00
2018,04,27,01,42,0.10
2018,04,27,01,43,0.00
2018,04,27,01,44,0.00
2018,04,27,01,45,0.00
2018,04,27,01,46,0.00
2018,04,27,01,47,0.10
2018,04,27,01,48,0.00
2018,04,27,01,49,0.00
2018,04,27,01,50,0.00
2018,04,27,01,51,0.00
2018,04,27,01,52,0.00
2018,04,27,01,53,1.60
2018,04,27,01,54,3.30
2018,04,27,01,55,3.80
2018,04,27,01,56,4.40
2018,04,27,01,57,3.90
2018,04,27,01,58,4.10
2018,04,27,01,59,3.50
2018,04,27,02,00,3.20
2018,04,27,02,01,3.00
2018,04,27,02,02,2.00
2018,04,27,02,03,2.50
2018,04,27,02,04,1.90
2018,04,27,02,05,2.00
2018,04,27,02,06,1.90
2018,04,27,02,07,1.40
2018,04,27,02,08,1.80
2018,04,27,02,09,1.70
2018,04,27,02,10,2.00
2018,04,27,02,11,2.80
2018,04,27,02,12,2.30
2018,04,27,02,13,2.50
2018,04,27,02,14,2.40
2018,04,27,02,15,2.60
2018,04,27,02,16,2.10
2018,04,27,02,17,2.30
2018,04,27,02,18,2.20
2018,04,27,02,19,1.80
2018,04,27,02,20,1.90
2018,04,27,02,21,2.10
2018,04,27,02,22,2.20
2018,04,27,02,23,1.80
2018,04,27,02,24,2.00
2018,04,27,02,25,1.00
2018,04,27,02,26,0.00
2018,04,27,02,27,2.10
2018,04,27,02,28,2.40
2018,04,27,02,29,1.50
2018,04,27,02,30,2.10
2018,04,27,02,31,2.80
2018,04,27,02,32,1.90
2018,04,27,02,33,1.70
2018,04,27,02,34,2.10
2018,04,27,02,35,2.40
2018,04,27,02,36,2.30
2018,04,27,02,37,2.40
2018,04,27,02,38,2.20
2018,04,27,02,39,2.30
2018,04,27,02,40,1.40
2018,04,27,02,41,0.00
2018,04,27,02,42,0.00
2018,04,27,02,43,0.00
2018,04,27,02,44,0.00
2018,04,27,02,45,0.00
2018,04,27,02,46,0.00
2018,04,27,02,47,0.00
2018,04,27,02,48,0.00
2018,04,27,02,49,0.00
2018,04,27,02,50,0.00
2018,04,27,02,51,0.00
2018,04,27,02,52,1.70
2018,04,27,02,53,3.60
2018,04,27,02,54,4.20
2018,04,27,02,55,4.40
2018,04,27,02,56,2.30
2018,04,27,02,57,0.00
2018,04,27,02,58,0.00
2018,04,27,02,59,0.00
2018,04,27,03,00,0.00
2018,04,27,03,01,0.00
2018,04,27,03,02,0.00
2018,04,27,03,03,0.00
2018,04,27,03,04,0.00
2018,04,27,03,05,2.60
2018,04,27,03,06,2.30
2018,04,27,03,07,2.70
2018,04,27,03,08,2.30
2018,04,27,03,09,2.60
2018,04,27,03,10,2.10
2018,04,27,03,11,2.70
2018,04,27,03,12,2.70
2018,04,27,03,13,2.90
2018,04,27,03,14,3.00
2018,04,27,03,15,3.60
2018,04,27,03,16,3.20
2018,04,27,03,17,2.30
2018,04,27,03,18,2.80
2018,04,27,03,19,4.10
2018,04,27,03,20,3.20
2018,04,27,03,21,3.00
2018,04,27,03,22,3.40
2018,04,27,03,23,5.40
2018,04,27,03,24,4.20
2018,04,27,03,25,4.30
2018,04,27,03,26,3.70
2018,04,27,03,27,3.10
2018,04,27,03,28,3.40
2018,04,27,03,29,1.20
2018,04,27,03,30,4.60
2018,04,27,03,31,4.00
2018,04,27,03,32,2.80
2018,04,27,03,33,3.60
2018,04,27,03,34,5.20
2018,04,27,03,35,2.40
2018,04,27,03,36,2.90
2018,04,27,03,37,0.00
2018,04,27,03,38,0.00
2018,04,27,03,39,0.00
2018,04,27,03,40,0.00
2018,04,27,03,41,0.10
2018,04,27,03,42,0.00
2018,04,27,03,43,0.60
2018,04,27,03,44,5.00
2018,04,27,03,45,3.90
2018,04,27,03,46,5.00
2018,04,27,03,47,6.00
2018,04,27,03,48,6.70
2018,04,27,03,49,5.30
2018,04,27,03,50,4.30
2018,04,27,03,51,5.30
2018,04,27,03,52,4.00
2018,04,27,03,53,4.00
2018,04,27,03,54,3.50
2018,04,27,03,55,3.00
2018,04,27,03,56,3.40
2018,04,27,03,57,3.50
2018,04,27,03,58,3.80
2018,04,27,03,59,3.10
2018,04,27,04,00,2.50
2018,04,27,04,01,2.60
2018,04,27,04,02,0.00
2018,04,27,04,03,0.00
2018,04,27,04,04,0.00
2018,04,27,04,05,0.00
2018,04,27,04,06,0.00
2018,04,27,04,07,0.00
2018,04,27,04,08,0.00
2018,04,27,04,09,0.10
2018,04,27,04,10,0.00
2018,04,27,04,11,0.00
2018,04,27,04,12,0.00
2018,04,27,04,13,0.00
2018,04,27,04,14,0.00
2018,04,27,04,15,0.00
2018,04,27,04,16,0.00
2018,04,27,04,17,0.00
2018,04,27,04,18,0.00
2018,04,27,04,19,0.00
2018,04,27,04,20,0.00
2018,04,27,04,21,0.00
2018,04,27,04,22,0.00
2018,04,27,04,23,0.00
2018,04,27,04,24,0.00
2018,04,27,04,25,0.00
2018,04,27,04,26,0.00
2018,04,27,04,27,0.00
2018,04,27,04,28,0.00
2018,04,27,04,29,0.00
2018,04,27,04,30,0.00
2018,04,27,04,31,0.00
2018,04,27,04,32,0.00
2018,04,27,04,33,0.00
2018,04,27,04,34,0.00
2018,04,27,04,35,0.00
2018,04,27,04,36,0.00
2018,04,27,04,37,0.00
2018,04,27,04,38,0.00
2018,04,27,04,39,0.00
2018,04,27,04,40,0.00
2018,04,27,04,41,0.10
2018,04,27,04,42,2.40
2018,04,27,04,43,3.30
2018,04,27,04,44,3.50
2018,04,27,04,45,2.50
2018,04,27,04,46,3.50
2018,04,27,04,47,3.00
2018,04,27,04,48,3.50
2018,04,27,04,49,3.30
2018,04,27,04,50,4.20
2018,04,27,04,51,4.10
2018,04,27,04,52,3.80
2018,04,27,04,53,3.10
2018,04,27,04,54,3.20
2018,04,27,04,55,1.20
2018,04,27,04,56,0.00
2018,04,27,04,57,0.00
2018,04,27,04,58,0.00
2018,04,27,04,59,0.00
2018,04,27,05,00,0.20
2018,04,27,05,01,3.10
2018,04,27,05,02,3.00
2018,04,27,05,03,2.80
2018,04,27,05,04,3.50
2018,04,27,05,05,2.50
2018,04,27,05,06,2.50
2018,04,27,05,07,2.30
2018,04,27,05,08,0.60
2018,04,27,05,09,0.00
2018,04,27,05,10,0.00
2018,04,27,05,11,0.00
2018,04,27,05,12,0.00
2018,04,27,05,13,0.00
2018,04,27,05,14,0.00
2018,04,27,05,15,0.20
2018,04,27,05,16,0.00
2018,04,27,05,17,0.00
2018,04,27,05,18,0.00
2018,04,27,05,19,0.00
2018,04,27,05,20,0.00
2018,04,27,05,21,0.00
2018,04,27,05,22,0.00
2018,04,27,05,23,0.00
2018,04,27,05,24,0.00
2018,04,27,05,25,0.00
2018,04,27,05,26,0.00
2018,04,27,05,27,0.00
2018,04,27,05,28,0.00
2018,04,27,05,29,0.60
2018,04,27,05,30,2.60
2018,04,27,05,31,3.80
2018,04,27,05,32,2.70
2018,04,27,05,33,1.80
2018,04,27,05,34,1.90
2018,04,27,05,35,0.10
2018,04,27,05,36,0.00
2018,04,27,05,37,0.00
2018,04,27,05,38,0.00
2018,04,27,05,39,0.00
2018,04,27,05,40,0.00
2018,04,27,05,41,0.00
2018,04,27,05,42,0.60
2018,04,27,05,43,0.00
2018,04,27,05,44,0.00
2018,04,27,05,45,0.00
2018,04,27,05,46,0.00
2018,04,27,05,47,0.00
2018,04,27,05,48,0.00
2018,04,27,05,49,2.20
2018,04,27,05,50,2.10
2018,04,27,05,51,2.40
2018,04,27,05,52,3.40
2018,04,27,05,53,2.30
2018,04,27,05,54,4.10
2018,04,27,05,55,0.60
2018,04,27,05,56,0.00
2018,04,27,05,57,0.00
2018,04,27,05,58,0.00
2018,04,27,05,59,2.40
2018,04,27,06,00,1.50
2018,04,27,06,01,0.00
2018,04,27,06,02,0.00
2018,04,27,06,03,0.00
2018,04,27,06,04,0.40
2018,04,27,06,05,3.20
2018,04,27,06,06,2.70
2018,04,27,06,07,3.00
2018,04,27,06,08,2.70
2018,04,27,06,09,2.50
2018,04,27,06,10,2.50
2018,04,27,06,11,2.40
2018,04,27,06,12,1.50
2018,04,27,06,13,0.00
2018,04,27,06,14,0.00
2018,04,27,06,15,0.00
2018,04,27,06,16,0.00
2018,04,27,06,17,0.00
2018,04,27,06,18,0.00
2018,04,27,06,19,0.00
2018,04,27,06,20,0.00
2018,04,27,06,21,2.50
2018,04,27,06,22,3.40
2018,04,27,06,23,4.30
2018,04,27,06,24,3.90
2018,04,27,06,25,3.40
2018,04,27,06,26,4.00
2018,04,27,06,27,3.50
2018,04,27,06,28,3.40
2018,04,27,06,29,3.10
2018,04,27,06,30,1.10
2018,04,27,06,31,0.00
2018,04,27,06,32,0.00
2018,04,27,06,33,0.00
2018,04,27,06,34,0.00
2018,04,27,06,35,0.00
2018,04,27,06,36,0.00
2018,04,27,06,37,0.00
2018,04,27,06,38,0.00
2018,04,27,06,39,0.00
2018,04,27,06,40,0.00
2018,04,27,06,41,0.00
2018,04,27,06,42,0.00
2018,04,27,06,43,0.00
2018,04,27,06,44,0.00
2018,04,27,06,45,0.00
2018,04,27,06,46,0.00
2018,04,27,06,47,0.00
2018,04,27,06,48,0.00
2018,04,27,06,49,0.00
2018,04,27,06,50,0.00
2018,04,27,06,51,0.00
2018,04,27,06,52,0.00
2018,04,27,06,53,0.00
2018,04,27,06,54,0.00
2018,04,27,06,55,0.00
2018,04,27,06,56,0.00
2018,04,27,06,57,0.00
2018,04,27,06,58,0.00
2018,04,27,06,59,0.00
2018,04,27,07,00,0.00
2018,04,27,07,01,0.00
2018,04,27,07,02,0.00
2018,04,27,07,03,0.00
2018,04,27,07,04,0.00
2018,04,27,07,05,0.00
2018,04,27,07,06,0.00
2018,04,27,07,07,0.10
2018,04,27,07,08,0.00
2018,04,27,07,09,0.00
2018,04,27,07,10,0.00
2018,04,27,07,11,0.00
2018,04,27,07,12,0.00
2018,04,27,07,13,0.00
2018,04,27,07,14,0.00
2018,04,27,07,15,0.00
2018,04,27,07,16,0.00
2018,04,27,07,17,0.00
2018,04,27,07,18,0.00
2018,04,27,07,19,0.00
2018,04,27,07,20,0.00
2018,04,27,07,21,0.00
2018,04,27,07,22,0.00
2018,04,27,07,23,0.00
2018,04,27,07,24,0.00
2018,04,27,07,25,0.00
2018,04,27,07,26,0.00
2018,04,27,07,27,0.00
2018,04,27,07,28,0.00
2018,04,27,07,29,0.00
2018,04,27,07,30,0.00
2018,04,27,07,31,0.00
2018,04,27,07,32,0.00
2018,04,27,07,33,0.00
2018,04,27,07,34,0.00
2018,04,27,07,35,0.00
2018,04,27,07,36,0.00
2018,04,27,07,37,0.00
2018,04,27,07,38,0.00
2018,04,27,07,39,0.00
2018,04,27,07,40,0.00
2018,04,27,07,41,0.00
2018,04,27,07,42,0.00
2018,04,27,07,43,0.00
2018,04,27,07,44,0.00
2018,04,27,07,45,0.00
2018,04,27,07,46,0.00
2018,04,27,07,47,0.00
2018,04,27,07,48,0.00
2018,04,27,07,49,0.00
2018,04,27,07,50,0.00
2018,04,27,07,51,0.00
2018,04,27,07,52,0.00
2018,04,27,07,53,0.00
2018,04,27,07,54,0.00
2018,04,27,07,55,0.00
2018,04,27,07,56,0.00
2018,04,27,07,57,0.00
2018,04,27,07,58,0.00
2018,04,27,07,59,0.00
2018,04,27,08,00,0.00
2018,04,27,08,01,0.00
2018,04,27,08,02,0.00
2018,04,27,08,03,0.00
2018,04,27,08,04,0.00
2018,04,27,08,05,0.10
2018,04,27,08,06,0.00
2018,04,27,08,07,0.00
2018,04,27,08,08,0.00
2018,04,27,08,09,0.00
2018,04,27,08,10,0.00
2018,04,27,08,11,0.00
2018,04,27,08,12,0.00
2018,04,27,08,13,0.00
2018,04,27,08,14,0.00
2018,04,27,08,15,0.00
2018,04,27,08,16,0.00
2018,04,27,08,17,0.00
2018,04,27,08,18,0.00
2018,04,27,08,19,0.00
2018,04,27,08,20,0.00
2018,04,27,08,21,0.00
2018,04,27,08,22,0.00
2018,04,27,08,23,0.00
2018,04,27,08,24,0.00
2018,04,27,08,25,0.00
2018,04,27,08,26,0.00
2018,04,27,08,27,0.00
2018,04,27,08,28,0.00
2018,04,27,08,29,0.00
2018,04,27,08,30,0.00
2018,04,27,08,31,0.00
2018,04,27,08,32,0.00
2018,04,27,08,33,0.00
2018,04,27,08,34,0.00
2018,04,27,08,35,0.00
2018,04,27,08,36,0.00
2018,04,27,08,37,0.00
2018,04,27,08,38,0.00
2018,04,27,08,39,0.00
2018,04,27,08,40,0.00
2018,04,27,08,41,0.00
2018,04,27,08,42,0.00
2018,04,27,08,43,0.00
2018,04,27,08,44,0.00
2018,04,27,08,45,0.00
2018,04,27,08,46,0.00
2018,04,27,08,47,0.00
2018,04,27,08,48,0.00
2018,04,27,08,49,0.00
2018,04,27,08,50,0.80
2018,04,27,08,51,2.40
2018,04,27,08,52,2.70
2018,04,27,08,53,2.20
2018,04,27,08,54,2.50
2018,04,27,08,55,0.60
2018,04,27,08,56,0.00
2018,04,27,08,57,0.00
2018,04,27,08,58,0.00
2018,04,27,08,59,0.00
2018,04,27,09,00,0.00
2018,04,27,09,01,0.00
2018,04,27,09,02,0.00
2018,04,27,09,03,0.00
2018,04,27,09,04,0.00
2018,04,27,09,05,0.00
2018,04,27,09,06,0.00
2018,04,27,09,07,0.00
2018,04,27,09,08,0.00
2018,04,27,09,09,0.00
2018,04,27,09,10,0.00
2018,04,27,09,11,0.10
2018,04,27,09,12,0.00
2018,04,27,09,13,0.00
2018,04,27,09,14,0.00
2018,04,27,09,15,0.00
2018,04,27,09,16,0.20
2018,04,27,09,17,0.00
2018,04,27,09,18,0.00
2018,04,27,09,19,0.00
2018,04,27,09,20,1.60
2018,04,27,09,21,4.50
2018,04,27,09,22,3.60
2018,04,27,09,23,3.20
2018,04,27,09,24,0.30
2018,04,27,09,25,0.10
2018,04,27,09,26,0.00
2018,04,27,09,27,0.00
2018,04,27,09,28,0.00
2018,04,27,09,29,0.00
2018,04,27,09,30,0.00
2018,04,27,09,31,0.00
2018,04,27,09,32,0.00
2018,04,27,09,33,0.60
2018,04,27,09,34,4.30
2018,04,27,09,35,0.80
2018,04,27,09,36,0.10
2018,04,27,09,37,0.10
2018,04,27,09,38,0.00
2018,04,27,09,39,0.00
2018,04,27,09,40,0.00
2018,04,27,09,41,4.10
2018,04,27,09,42,7.00
2018,04,27,09,43,4.10
2018,04,27,09,44,0.00
2018,04,27,09,45,0.10
2018,04,27,09,46,0.70
2018,04,27,09,47,3.20
2018,04,27,09,48,3.80
2018,04,27,09,49,0.10
2018,04,27,09,50,0.00
2018,04,27,09,51,0.00
2018,04,27,09,52,0.50
2018,04,27,09,53,1.30
2018,04,27,09,54,0.00
2018,04,27,09,55,0.10
2018,04,27,09,56,0.00
2018,04,27,09,57,0.00
2018,04,27,09,58,0.00
2018,04,27,09,59,0.00
2018,04,27,10,00,0.00
2018,04,27,10,01,0.00
2018,04,27,10,02,0.00
2018,04,27,10,03,0.00
2018,04,27,10,04,0.00
2018,04,27,10,05,0.00
2018,04,27,10,06,0.00
2018,04,27,10,07,0.80
2018,04,27,10,08,0.00
2018,04,27,10,09,0.00
2018,04,27,10,10,0.00
2018,04,27,10,11,0.00
2018,04,27,10,12,0.00
2018,04,27,10,13,0.00
2018,04,27,10,14,0.00
2018,04,27,10,15,0.00
2018,04,27,10,16,0.00
2018,04,27,10,17,0.10
2018,04,27,10,18,8.30
2018,04,27,10,19,7.40
2018,04,27,10,20,5.40
2018,04,27,10,21,0.50
2018,04,27,10,22,0.00
2018,04,27,10,23,0.00
2018,04,27,10,24,0.20
2018,04,27,10,25,0.10
2018,04,27,10,26,4.40
2018,04,27,10,27,3.50
2018,04,27,10,28,0.00
2018,04,27,10,29,5.80
2018,04,27,10,30,5.40
2018,04,27,10,31,6.10
2018,04,27,10,32,6.10
2018,04,27,10,33,4.60
2018,04,27,10,34,2.30
2018,04,27,10,35,5.00
2018,04,27,10,36,5.10
2018,04,27,10,37,5.10
2018,04,27,10,38,5.40
2018,04,27,10,39,3.10
2018,04,27,10,40,0.00
2018,04,27,10,41,3.90
2018,04,27,10,42,6.10
2018,04,27,10,43,4.90
2018,04,27,10,44,5.60
2018,04,27,10,45,7.00
2018,04,27,10,46,4.60
2018,04,27,10,47,6.40
2018,04,27,10,48,6.40
2018,04,27,10,49,6.70
2018,04,27,10,50,5.40
2018,04,27,10,51,7.30
2018,04,27,10,52,2.00
2018,04,27,10,53,4.10
2018,04,27,10,54,6.30
2018,04,27,10,55,1.50
2018,04,27,10,56,4.80
2018,04,27,10,57,0.60
2018,04,27,10,58,0.00
2018,04,27,10,59,2.30
2018,04,27,11,00,1.00
2018,04,27,11,01,0.00
2018,04,27,11,02,0.10
2018,04,27,11,03,0.30
2018,04,27,11,04,0.10
2018,04,27,11,05,1.90
2018,04,27,11,06,4.80
2018,04,27,11,07,0.10
2018,04,27,11,08,0.20
2018,04,27,11,09,1.90
2018,04,27,11,10,0.10
2018,04,27,11,11,4.50
2018,04,27,11,12,3.50
2018,04,27,11,13,1.60
2018,04,27,11,14,0.00
2018,04,27,11,15,1.30
2018,04,27,11,16,1.10
2018,04,27,11,17,0.00
2018,04,27,11,18,3.30
2018,04,27,11,19,0.30
2018,04,27,11,20,0.00
2018,04,27,11,21,6.30
2018,04,27,11,22,3.90
2018,04,27,11,23,2.00
2018,04,27,11,24,0.00
2018,04,27,11,25,0.10
2018,04,27,11,26,1.30
2018,04,27,11,27,1.00
2018,04,27,11,28,0.10
2018,04,27,11,29,4.20
2018,04,27,11,30,5.30
2018,04,27,11,31,2.40
2018,04,27,11,32,1.00
2018,04,27,11,33,6.50
2018,04,27,11,34,0.00
2018,04,27,11,35,8.10
2018,04,27,11,36,7.70
2018,04,27,11,37,8.30
2018,04,27,11,38,8.70
2018,04,27,11,39,8.00
2018,04,27,11,40,7.30
2018,04,27,11,41,9.00
2018,04,27,11,42,4.50
2018,04,27,11,43,1.40
2018,04,27,11,44,6.30
2018,04,27,11,45,7.10
2018,04,27,11,46,6.70
2018,04,27,11,47,2.50
2018,04,27,11,48,7.10
2018,04,27,11,49,1.40
2018,04,27,11,50,7.50
2018,04,27,11,51,7.40
2018,04,27,11,52,3.80
2018,04,27,11,53,7.70
2018,04,27,11,54,3.10
2018,04,27,11,55,11.80
2018,04,27,11,56,6.40
2018,04,27,11,57,6.60
2018,04,27,11,58,4.20
2018,04,27,11,59,4.70
2018,04,27,12,00,7.30
2018,04,27,12,01,4.90
2018,04,27,12,02,3.50
2018,04,27,12,03,3.50
2018,04,27,12,04,9.00
2018,04,27,12,05,7.50
2018,04,27,12,06,7.70
2018,04,27,12,07,5.70
2018,04,27,12,08,5.70
2018,04,27,12,09,5.40
2018,04,27,12,10,5.60
2018,04,27,12,11,2.60
2018,04,27,12,12,6.40
2018,04,27,12,13,2.10
2018,04,27,12,14,0.50
2018,04,27,12,15,6.60
2018,04,27,12,16,5.80
2018,04,27,12,17,5.00
2018,04,27,12,18,9.80
2018,04,27,12,19,11.00
2018,04,27,12,20,6.70
2018,04,27,12,21,8.50
2018,04,27,12,22,6.80
2018,04,27,12,23,11.40
2018,04,27,12,24,8.40
2018,04,27,12,25,8.40
2018,04,27,12,26,10.10
2018,04,27,12,27,6.80
2018,04,27,12,28,5.90
2018,04,27,12,29,5.70
2018,04,27,12,30,9.00
2018,04,27,12,31,6.80
2018,04,27,12,32,2.20
2018,04,27,12,33,6.90
2018,04,27,12,34,2.50
2018,04,27,12,35,5.60
2018,04,27,12,36,4.70
2018,04,27,12,37,4.70
2018,04,27,12,38,9.40
2018,04,27,12,39,8.10
2018,04,27,12,40,8.30
2018,04,27,12,41,8.00
2018,04,27,12,42,9.40
2018,04,27,12,43,6.20
2018,04,27,12,44,10.10
2018,04,27,12,45,8.30
2018,04,27,12,46,5.30
2018,04,27,12,47,6.20
2018,04,27,12,48,6.30
2018,04,27,12,49,5.00
2018,04,27,12,50,5.60
2018,04,27,12,51,8.10
2018,04,27,12,52,4.40
2018,04,27,12,53,6.10
2018,04,27,12,54,1.00
2018,04,27,12,55,4.70
2018,04,27,12,56,6.00
2018,04,27,12,57,6.10
2018,04,27,12,58,5.50
2018,04,27,12,59,9.70
2018,04,27,13,00,7.10
2018,04,27,13,01,5.40
2018,04,27,13,02,4.90
2018,04,27,13,03,5.40
2018,04,27,13,04,5.60
2018,04,27,13,05,3.80
2018,04,27,13,06,6.80
2018,04,27,13,07,8.50
2018,04,27,13,08,7.40
2018,04,27,13,09,5.50
2018,04,27,13,10,6.60
2018,04,27,13,11,8.00
2018,04,27,13,12,13.50
2018,04,27,13,13,14.20
2018,04,27,13,14,7.20
2018,04,27,13,15,4.90
2018,04,27,13,16,5.60
2018,04,27,13,17,5.10
2018,04,27,13,18,5.60
2018,04,27,13,19,5.30
2018,04,27,13,20,4.80
2018,04,27,13,21,6.50
2018,04,27,13,22,4.80
2018,04,27,13,23,8.90
2018,04,27,13,24,8.60
2018,04,27,13,25,1.50
2018,04,27,13,26,2.80
2018,04,27,13,27,1.70
2018,04,27,13,28,0.70
2018,04,27,13,29,4.80
2018,04,27,13,30,3.20
2018,04,27,13,31,5.70
2018,04,27,13,32,12.50
2018,04,27,13,33,8.40
2018,04,27,13,34,8.60
2018,04,27,13,35,10.00
2018,04,27,13,36,6.60
2018,04,27,13,37,9.20
2018,04,27,13,38,7.30
2018,04,27,13,39,7.20
2018,04,27,13,40,12.00
2018,04,27,13,41,8.40
2018,04,27,13,42,9.30
2018,04,27,13,43,8.50
2018,04,27,13,44,6.40
2018,04,27,13,45,6.40
2018,04,27,13,46,7.90
2018,04,27,13,47,5.60
2018,04,27,13,48,5.70
2018,04,27,13,49,7.20
2018,04,27,13,50,9.80
2018,04,27,13,51,6.30
2018,04,27,13,52,6.20
2018,04,27,13,53,6.40
2018,04,27,13,54,13.70
2018,04,27,13,55,8.80
2018,04,27,13,56,8.20
2018,04,27,13,57,8.50
2018,04,27,13,58,8.60
2018,04,27,13,59,6.30
2018,04,27,14,00,6.40
2018,04,27,14,01,8.40
2018,04,27,14,02,12.00
2018,04,27,14,03,12.30
2018,04,27,14,04,8.60
2018,04,27,14,05,8.40
2018,04,27,14,06,7.40
2018,04,27,14,07,4.70
2018,04,27,14,08,4.00
2018,04,27,14,09,5.80
2018,04,27,14,10,4.20
2018,04,27,14,11,2.30
2018,04,27,14,12,7.70
2018,04,27,14,13,6.60
2018,04,27,14,14,7.50
2018,04,27,14,15,6.70
2018,04,27,14,16,5.30
2018,04,27,14,17,4.70
2018,04,27,14,18,6.30
2018,04,27,14,19,6.40
2018,04,27,14,20,8.10
2018,04,27,14,21,6.00
2018,04,27,14,22,7.10
2018,04,27,14,23,6.60
2018,04,27,14,24,8.80
2018,04,27,14,25,9.50
2018,04,27,14,26,13.20
2018,04,27,14,27,7.40
2018,04,27,14,28,7.00
2018,04,27,14,29,8.50
2018,04,27,14,30,9.00
2018,04,27,14,31,8.20
2018,04,27,14,32,5.30
2018,04,27,14,33,7.40
2018,04,27,14,34,5.30
2018,04,27,14,35,6.40
2018,04,27,14,36,6.00
2018,04,27,14,37,3.60
2018,04,27,14,38,5.10
2018,04,27,14,39,3.80
2018,04,27,14,40,4.10
2018,04,27,14,41,4.10
2018,04,27,14,42,5.50
2018,04,27,14,43,4.90
2018,04,27,14,44,5.60
2018,04,27,14,45,4.70
2018,04,27,14,46,4.70
2018,04,27,14,47,7.50
2018,04,27,14,48,7.20
2018,04,27,14,49,9.60
2018,04,27,14,50,7.10
2018,04,27,14,51,7.10
2018,04,27,14,52,6.40
2018,04,27,14,53,6.50
2018,04,27,14,54,6.40
2018,04,27,14,55,4.30
2018,04,27,14,56,9.10
2018,04,27,14,57,5.50
2018,04,27,14,58,6.10
2018,04,27,14,59,7.20
2018,04,27,15,00,5.80
2018,04,27,15,01,7.50
2018,04,27,15,02,7.40
2018,04,27,15,03,4.90
2018,04,27,15,04,4.20
2018,04,27,15,05,2.70
2018,04,27,15,06,7.10
2018,04,27,15,07,5.80
2018,04,27,15,08,6.70
2018,04,27,15,09,5.50
2018,04,27,15,10,5.80
2018,04,27,15,11,4.20
2018,04,27,15,12,3.50
2018,04,27,15,13,7.10
2018,04,27,15,14,8.80
2018,04,27,15,15,4.70
2018,04,27,15,16,2.90
2018,04,27,15,17,3.80
2018,04,27,15,18,1.70
2018,04,27,15,19,0.20
2018,04,27,15,20,4.30
2018,04,27,15,21,5.50
2018,04,27,15,22,3.50
2018,04,27,15,23,2.80
2018,04,27,15,24,2.80
2018,04,27,15,25,0.00
2018,04,27,15,26,0.10
2018,04,27,15,27,2.40
2018,04,27,15,28,1.00
2018,04,27,15,29,0.40
2018,04,27,15,30,0.00
2018,04,27,15,31,2.90
2018,04,27,15,32,0.10
2018,04,27,15,33,0.20
2018,04,27,15,34,3.00
2018,04,27,15,35,6.30
2018,04,27,15,36,7.40
2018,04,27,15,37,2.30
2018,04,27,15,38,0.00
2018,04,27,15,39,2.10
2018,04,27,15,40,0.00
2018,04,27,15,41,0.00
2018,04,27,15,42,3.90
2018,04,27,15,43,5.90
2018,04,27,15,44,7.50
2018,04,27,15,45,8.00
2018,04,27,15,46,5.10
2018,04,27,15,47,1.10
2018,04,27,15,48,0.70
2018,04,27,15,49,5.40
2018,04,27,15,50,0.00
2018,04,27,15,51,0.00
2018,04,27,15,52,2.70
2018,04,27,15,53,3.10
2018,04,27,15,54,0.10
2018,04,27,15,55,2.50
2018,04,27,15,56,4.80
2018,04,27,15,57,8.70
2018,04,27,15,58,21.10
2018,04,27,15,59,15.80
2018,04,27,16,00,23.50
2018,04,27,16,01,38.40
2018,04,27,16,02,24.00
2018,04,27,16,03,28.30
2018,04,27,16,04,34.90
2018,04,27,16,05,29.40
2018,04,27,16,06,27.40
2018,04,27,16,07,23.30
2018,04,27,16,08,18.90
2018,04,27,16,09,17.90
2018,04,27,16,10,24.70
2018,04,27,16,11,16.90
2018,04,27,16,12,17.00
2018,04,27,16,13,30.70
2018,04,27,16,14,33.10
2018,04,27,16,15,27.20
2018,04,27,16,16,26.60
2018,04,27,16,17,25.20
2018,04,27,16,18,18.30
2018,04,27,16,19,25.40
2018,04,27,16,20,25.30
2018,04,27,16,21,25.40
2018,04,27,16,22,16.50
2018,04,27,16,23,12.00
2018,04,27,16,24,26.20
2018,04,27,16,25,31.10
2018,04,27,16,26,24.50
2018,04,27,16,27,19.30
2018,04,27,16,28,34.40
2018,04,27,16,29,28.50
2018,04,27,16,30,43.40
2018,04,27,16,31,31.80
2018,04,27,16,32,32.70
2018,04,27,16,33,36.90
2018,04,27,16,34,27.20
2018,04,27,16,35,33.60
2018,04,27,16,36,22.20
2018,04,27,16,37,34.90
2018,04,27,16,38,36.00
2018,04,27,16,39,27.70
2018,04,27,16,40,18.20
2018,04,27,16,41,20.60
2018,04,27,16,42,34.10
2018,04,27,16,43,19.10
2018,04,27,16,44,29.40
2018,04,27,16,45,28.40
2018,04,27,16,46,20.30
2018,04,27,16,47,31.90
2018,04,27,16,48,36.60
2018,04,27,16,49,30.40
2018,04,27,16,50,38.80
2018,04,27,16,51,18.40
2018,04,27,16,52,35.30
2018,04,27,16,53,27.40
2018,04,27,16,54,22.50
2018,04,27,16,55,27.90
2018,04,27,16,56,23.70
2018,04,27,16,57,36.00
2018,04,27,16,58,31.30
2018,04,27,16,59,26.90
2018,04,27,17,00,22.50
2018,04,27,17,01,36.40
2018,04,27,17,02,31.00
2018,04,27,17,03,24.60
2018,04,27,17,04,18.20
2018,04,27,17,05,25.30
2018,04,27,17,06,39.40
2018,04,27,17,07,22.90
2018,04,27,17,08,30.30
2018,04,27,17,09,22.00
2018,04,27,17,10,29.10
2018,04,27,17,11,27.90
2018,04,27,17,12,26.60
2018,04,27,17,13,29.20
2018,04,27,17,14,25.10
2018,04,27,17,15,24.00
2018,04,27,17,16,29.30
2018,04,27,17,17,33.60
2018,04,27,17,18,23.70
2018,04,27,17,19,26.10
2018,04,27,17,20,32.40
2018,04,27,17,21,37.60
2018,04,27,17,22,31.70
2018,04,27,17,23,30.00
2018,04,27,17,24,26.90
2018,04,27,17,25,32.40
2018,04,27,17,26,26.60
2018,04,27,17,27,31.90
2018,04,27,17,28,33.90
2018,04,27,17,29,23.70
2018,04,27,17,30,20.70
2018,04,27,17,31,32.00
2018,04,27,17,32,24.00
2018,04,27,17,33,34.60
2018,04,27,17,34,32.00
2018,04,27,17,35,18.70
2018,04,27,17,36,24.00
2018,04,27,17,37,25.10
2018,04,27,17,38,26.60
2018,04,27,17,39,33.40
2018,04,27,17,40,24.20
2018,04,27,17,41,34.80
2018,04,27,17,42,30.20
2018,04,27,17,43,36.30
2018,04,27,17,44,22.10
2018,04,27,17,45,24.10
2018,04,27,17,46,21.00
2018,04,27,17,47,33.10
2018,04,27,17,48,32.60
2018,04,27,17,49,31.50
2018,04,27,17,50,34.00
2018,04,27,17,51,21.60
2018,04,27,17,52,37.00
2018,04,27,17,53,25.80
2018,04,27,17,54,30.80
2018,04,27,17,55,22.00
2018,04,27,17,56,27.60
2018,04,27,17,57,30.70
2018,04,27,17,58,33.60
2018,04,27,17,59,27.50
2018,04,27,18,00,23.30